Change the Weather History Date:

Thursday, January 16, 2014

  Actual Average Record
Temperature  
Mean Temperature 3 °F -  
Max Temperature 17 °F 7 °F 32 °F (1999)
Min Temperature -14 °F -6 °F -34 °F (2005)
Degree Days  
Heating Degree Days 62    
Moisture  
Dew Point -5 °F    
Average Humidity 75    
Maximum Humidity 86    
Minimum Humidity 61    
Precipitation  
Precipitation 0.00 in - - ()
Sea Level Pressure  
Sea Level Pressure 29.90 in    
Wind  
Wind Speed 25 mph ()    
Max Wind Speed 38 mph    
Max Gust Speed 48 mph    
Visibility 7.9 miles    
Events Snow    
Averages and records for this station are not official NWS values.
T = Trace of Precipitation, MM = Missing Value Source: Averaged Metar Reports

Daily Weather History Graph

Daily Weather History Graph

Search for Another Location

Airport or City:

Trip Planner

Search our weather history database for the weather conditions in past years. The results will help you decide how hot, cold, wet, or windy it might be!

Date:

Astronomy

Jan. 16, 2014 Rise Set
Actual Time 8:20 AM CST 4:57 PM CST
Civil Twilight 7:43 AM CST 5:34 PM CST
Nautical Twilight 7:03 AM CST 6:14 PM CST
Astronomical Twilight 6:24 AM CST 6:53 PM CST
Moon 6:00 PM CST (1/16) 8:05 AM CST (1/16)
Length of Visible Light 9h 50m
Length of Day
8h 37m
Full, 100% of the Moon is Illuminated
Jan 16
Full
Jan 23
Last Quarter
Jan 30
New
Feb 6
First Quarter
Feb 14
Full

Hourly Weather History & Observations

Time (CST) Temp. Windchill Dew Point Humidity Pressure Visibility Wind Dir Wind Speed Gust Speed Precip Events Conditions
12:00 AM 17.6 °F -3.8 °F 12.2 °F 79% 29.37 in 4.0 mi NW 38.0 mph 48.3 mph N/A Snow Light Snow
1:00 AM 14.0 °F -7.1 °F 10.4 °F 86% 29.43 in 4.0 mi NNW 31.1 mph 40.3 mph N/A Snow Light Snow
2:00 AM 10.4 °F -13.8 °F 3.2 °F 73% 29.49 in 6.0 mi NNW 38.0 mph - N/A Snow Light Snow
3:00 AM 6.8 °F -17.9 °F -0.4 °F 72% 29.56 in 4.0 mi NNW 34.5 mph 42.6 mph N/A Snow Light Snow
3:46 AM 5.0 °F -20.4 °F -0.4 °F 78% 29.60 in 2.0 mi NNW 34.5 mph 41.4 mph N/A Snow Light Snow
4:00 AM 3.2 °F -22.9 °F -0.4 °F 85% 29.60 in 1.0 mi NNW 34.5 mph 47.2 mph N/A Snow Light Snow
4:27 AM 3.2 °F -22.2 °F -2.2 °F 78% 29.62 in 4.0 mi NNW 32.2 mph 40.3 mph N/A Snow Light Snow
5:00 AM 1.4 °F -25.7 °F -4.0 °F 78% 29.64 in 4.0 mi NNW 35.7 mph 42.6 mph N/A Snow Light Snow
6:00 AM 1.4 °F -24.6 °F -4.0 °F 78% 29.70 in 5.0 mi NNW 32.2 mph 40.3 mph N/A Snow Light Snow
6:33 AM 1.4 °F -23.9 °F -4.0 °F 78% 29.73 in 1.0 mi NNW 29.9 mph 40.3 mph N/A Snow Light Snow
7:00 AM 1.4 °F -25.3 °F -4.0 °F 78% 29.75 in 0.8 mi NNW 34.5 mph 41.4 mph N/A Snow Light Snow
8:00 AM -0.4 °F -26.4 °F -4.0 °F 85% 29.81 in 1.0 mi NNW 29.9 mph 40.3 mph N/A Snow Light Snow
9:00 AM -0.4 °F -26.4 °F -4.0 °F 85% 29.87 in 0.8 mi NNW 29.9 mph 38.0 mph N/A Snow Light Snow
10:00 AM -0.4 °F -26.4 °F -4.0 °F 85% 29.92 in 0.8 mi NNW 29.9 mph - N/A Snow Light Snow
11:00 AM 1.4 °F -22.7 °F -4.0 °F 78% 29.97 in 5.0 mi NNW 26.5 mph 33.4 mph N/A Snow Blowing Snow
12:00 PM 3.2 °F -19.5 °F -4.0 °F 72% 30.01 in 6.0 mi North 24.2 mph 31.1 mph N/A Snow Blowing Snow
1:00 PM 3.2 °F -19.0 °F -5.8 °F 66% 30.04 in 15.0 mi North 23.0 mph 31.1 mph N/A Snow Low Drifting Snow
2:00 PM 1.4 °F -19.4 °F -7.6 °F 66% 30.07 in 15.0 mi North 18.4 mph 25.3 mph N/A Snow Low Drifting Snow
3:00 PM 3.2 °F -15.9 °F -7.6 °F 61% 30.11 in 15.0 mi North 16.1 mph 26.5 mph N/A Snow Low Drifting Snow
4:00 PM 1.4 °F -16.1 °F -7.6 °F 66% 30.15 in 15.0 mi NNW 12.7 mph - N/A Snow Low Drifting Snow
5:00 PM -2.2 °F -21.5 °F -9.4 °F 71% 30.19 in 15.0 mi NNW 13.8 mph - N/A   Clear
6:00 PM -2.2 °F -21.5 °F -11.2 °F 66% 30.24 in 15.0 mi NNW 13.8 mph - N/A   Clear
7:00 PM -4.0 °F - -13.0 °F 65% 30.26 in 15.0 mi NNW 2.3 mph - N/A   Clear
8:00 PM -7.6 °F -22.1 °F -14.8 °F 71% 30.26 in 15.0 mi NNW 6.9 mph - N/A   Clear
9:00 PM -11.2 °F -30.1 °F -16.6 °F 77% 30.27 in 15.0 mi NNW 10.4 mph - N/A   Clear
10:00 PM -11.2 °F -23.0 °F -16.6 °F 77% 30.29 in 15.0 mi NW 4.6 mph - N/A   Clear
11:00 PM -14.8 °F -24.8 °F -18.4 °F 84% 30.26 in 15.0 mi NNW 3.5 mph - N/A   Clear